Weather in Bashtanka

Ukraine / Mykolaiv District     47˚24′25″N   32˚26′15″E
temp.,
°C
wind,
m/s
gust,
m/s
humid.,
%
clouds,
%
prec.,
mm/h
press.,
hPa
HPBL,
m
2 december, wed
wed223:00+2˚ene5788100 0.1 1024440
02:00+2˚ne4792100 0.1 1024395
05:00+3˚ne4786100 0.0 1024418
08:00+3˚ene4781100 0.0 1025474
11:00+3˚ene5775100 0.0 1026529
14:00+2˚ene4793100 0.2 1025378
17:00ene4695100 0.6 1026317
20:00+1˚ne589697 0.8 1026332
3 december, thu
thu323:00+2˚e479199 0.3 1026304
02:00+3˚e479099 0.5 1025348
05:00+3˚ene3687100 0.1 1025276
08:00+3˚e479099 0.1 1025287
11:00+5˚e5887100 0.0 1025424
14:00+6˚ese5986100 0.1 1024483
17:00+6˚ese5108799 0.1 1024469
20:00+5˚ese5108698 0.1 1024479
4 december, fri
fri423:00+5˚ese61087100 0.0 1024430
02:00+5˚ese599099 0.0 1024372
05:00+4˚ese5988100 0.0 1023351
08:00+4˚ese699099 0.0 1024378
11:00+4˚ese7985100 0.0 1024437
14:00+5˚ese6982100 0.0 1023484
17:00+5˚e71181100 0.0 1024537
20:00+4˚ese6138770 0.0 1024470
5 december, sat
sat523:00+2˚ese6129029 0.0 1025438
02:00+3˚ese7118655 0.0 1025490
05:00+3˚e71186100 0.0 1025536
08:00+3˚e71084100 0.0 1026552
11:00+3˚e6973100 0.0 1027629
14:00+3˚e797278 0.0 1026632
17:00+3˚e7974100 0.0 1027752
20:00+3˚e71069100 0.0 1028775
6 december, sun
sun623:00e5117254 0.0 1028490
02:00−1˚e6126732 0.0 1028470
05:00−2˚e512720 0.0 1028494
08:00−2˚e612712 0.0 1029531
11:00+1˚e711592 0.0 1028695
14:00+2˚e610552 0.0 1027789
17:00e512650 0.0 1027469
20:00e614580 0.0 1028592